Location: Milevsko
(49.4500°N, 14.3670°E)
Time: 20:40:44
(UTC+02:00)

ISS - Pass Details

Date: 19 July 2018
Orbit: 402 x 408 km, 51.6° (Epoch: 17 July)

Event Time Altitude Azimuth Distance (km) Brightness Sun altitude
Exits shadow 01:30:34 - 272° (W) 1,967 -0.4 -19.5°
Reaches altitude 10° 01:31:48 10° 275° (W) 1,466 -1.0 -19.5°
Maximum altitude 01:35:02 57° 355° (N) 484 -3.2 -19.4°
Drops below altitude 10° 01:38:18 10° 76° (ENE) 1,469 -0.7 -19.4°
Sets 01:40:24 0° 81° (E) 2,331 0.3 -19.3°
